Weather History for Chicago Executive, IL

Change the Weather History Date:

Tuesday, March 5, 2013

  Actual Average Record
Temperature  
Mean Temperature 31 °F 34 °F  
Max Temperature 32 °F 42 °F 68 °F (2000)
Min Temperature 29 °F 26 °F 13 °F (2002)
Degree Days  
Heating Degree Days 34 31  
Month to date heating degree days 197 159  
Since 1 July heating degree days 4704 4897  
Cooling Degree Days 0 0  
Month to date cooling degree days 0 0  
Year to date cooling degree days 0 0  
Moisture  
Dew Point 28 °F    
Average Humidity 89    
Maximum Humidity 96    
Minimum Humidity 79    
Precipitation  
Precipitation 0.03 in 0.06 in 0.28 in (2004)
Month to date precipitation T 0.31  
Year to date precipitation 4.96 2.89  
Sea Level Pressure  
Sea Level Pressure 29.92 in    
Wind  
Wind Speed 10 mph (ENE)    
Max Wind Speed 18 mph    
Max Gust Speed 25 mph    
Visibility 3 miles    
Events Fog , Snow    
T = Trace of Precipitation, MM = Missing Value Source: NWS Daily Summary

Daily Weather History Graph

Daily Weather History Graph

Search for Another Location

Airport:

Trip Planner

Search our weather history database for the weather conditions in past years. The results will help you decide how hot, cold, wet, or windy it might be!

Date:

Astronomy

Mar. 05, 2013 Rise Set
Actual Time 6:19 AM CST 5:46 PM CST
Civil Twilight 5:51 AM CST 6:14 PM CST
Nautical Twilight 5:19 AM CST 6:47 PM CST
Astronomical Twilight 4:47 AM CST 7:19 PM CST
Moon 1:36 AM CST (3/5) 11:20 AM CST (3/5)
Length of Visible Light 12h 22m
Length of Day
11h 26m
Last Quarter, 40% of the Moon is Illuminated
Mar 5
Last Quarter
Mar 11
New
Mar 19
First Quarter
Mar 27
Full
Apr 2
Last Quarter

Hourly Weather History & Observations

Time (CST) Temp. Windchill Dew Point Humidity Pressure Visibility Wind Dir Wind Speed Gust Speed Precip Events Conditions
1:52 AM 32.0 °F 24.8 °F 26.1 °F 79% 30.01 in 10.0 mi East 8.1 mph - N/A   Overcast
2:52 AM 32.0 °F 24.2 °F 26.1 °F 79% 29.99 in 10.0 mi East 9.2 mph - N/A   Overcast
3:52 AM 32.0 °F 25.6 °F 26.1 °F 79% 29.97 in 10.0 mi East 6.9 mph - N/A   Overcast
4:31 AM 32.0 °F 24.8 °F 26.6 °F 80% 29.93 in 10.0 mi East 8.1 mph - N/A   Overcast
4:43 AM 32.0 °F 26.4 °F 26.6 °F 80% 29.94 in 10.0 mi East 5.8 mph - N/A   Overcast
4:52 AM 32.0 °F 24.2 °F 26.1 °F 79% 29.96 in 10.0 mi East 9.2 mph - N/A   Overcast
5:24 AM 32.0 °F 24.8 °F 26.6 °F 80% 29.92 in 10.0 mi East 8.1 mph - N/A   Overcast
5:52 AM 32.0 °F 25.6 °F 26.1 °F 79% 29.95 in 10.0 mi East 6.9 mph - N/A   Overcast
6:21 AM 32.0 °F 24.2 °F 26.6 °F 80% 29.92 in 2.0 mi East 9.2 mph - 0.00 in Snow Light Snow
6:48 AM 30.2 °F 23.4 °F 28.4 °F 93% 29.92 in 1.0 mi East 6.9 mph - 0.00 in Snow Light Snow
6:52 AM 30.9 °F 25.2 °F 28.0 °F 89% 29.94 in 1.2 mi East 5.8 mph - 0.00 in Snow Light Snow
7:22 AM 30.2 °F 23.4 °F 28.4 °F 93% 29.91 in 2.0 mi East 6.9 mph - 0.00 in Snow Light Snow
7:38 AM 30.2 °F 23.4 °F 28.4 °F 93% 29.91 in 1.2 mi East 6.9 mph - 0.00 in Snow Light Snow
7:52 AM 30.9 °F 23.5 °F 28.0 °F 89% 29.94 in 1.0 mi East 8.1 mph - 0.00 in Snow Light Snow
8:34 AM 30.2 °F 23.4 °F 28.4 °F 93% 29.92 in 1.0 mi East 6.9 mph - 0.00 in Snow Light Snow
8:49 AM 30.2 °F 23.4 °F 28.4 °F 93% 29.92 in 1.0 mi East 6.9 mph - 0.00 in Snow Light Snow
8:52 AM 30.9 °F 23.5 °F 28.9 °F 92% 29.94 in 1.0 mi East 8.1 mph - 0.00 in Snow Light Snow
8:59 AM 30.2 °F 24.3 °F 28.4 °F 93% 29.92 in 0.5 mi East 5.8 mph - 0.00 in Fog , Snow Snow
9:11 AM 30.2 °F 24.3 °F 28.4 °F 93% 29.91 in 1.0 mi ENE 5.8 mph - 0.00 in Snow Light Snow
9:26 AM 30.2 °F 23.4 °F 28.4 °F 93% 29.91 in 0.8 mi East 6.9 mph - 0.00 in Snow Light Snow
9:50 AM 30.2 °F 23.4 °F 28.4 °F 93% 29.90 in 0.8 mi ENE 6.9 mph - 0.00 in Snow Light Snow
9:52 AM 30.9 °F 24.3 °F 28.9 °F 92% 29.92 in 0.8 mi ENE 6.9 mph - 0.00 in Snow Light Snow
10:52 AM 30.9 °F 23.5 °F 28.9 °F 92% 29.89 in 0.8 mi ENE 8.1 mph 17.3 mph 0.01 in Snow Light Snow
10:56 AM 30.2 °F - 28.4 °F 93% 29.87 in - North - - 0.00 in   Unknown
11:52 AM - - - N/A% 29.85 in 0.8 mi ENE 17.3 mph - 0.00 in   Overcast
11:59 AM 30.2 °F 21.3 °F 28.4 °F 93% 29.85 in 0.5 mi East 10.4 mph - 0.00 in Snow Light Snow
12:14 PM 30.2 °F 22.6 °F 28.4 °F 93% 29.85 in 0.5 mi ENE 8.1 mph - 0.01 in Snow Light Snow
12:15 PM 30.2 °F 21.9 °F 28.4 °F 93% 29.85 in 0.5 mi East 9.2 mph - 0.01 in Snow Light Snow
12:52 PM 30.0 °F 21.7 °F 28.0 °F 92% 29.87 in 0.5 mi ENE 9.2 mph - 0.01 in Fog , Snow Snow
1:52 PM 30.0 °F 20.5 °F 28.0 °F 92% 29.86 in 0.2 mi ENE 11.5 mph - 0.01 in Fog , Snow Snow
2:52 PM 28.9 °F 20.4 °F 28.0 °F 96% 29.86 in 0.2 mi NE 9.2 mph - 0.00 in Fog , Snow Snow
3:52 PM 28.9 °F 21.1 °F 27.0 °F 92% 29.87 in 0.2 mi NNE 8.1 mph 19.6 mph 0.00 in Fog , Snow Snow
4:52 PM 28.9 °F 19.8 °F 27.0 °F 92% 29.88 in 0.2 mi NE 10.4 mph 18.4 mph 0.00 in Fog , Snow Snow
5:52 PM 28.9 °F 21.1 °F 28.0 °F 96% 29.91 in 0.5 mi NE 8.1 mph - 0.00 in Fog , Snow Snow
6:52 PM 30.0 °F 21.1 °F 28.0 °F 92% 29.92 in 1.0 mi NNE 10.4 mph - 0.00 in Snow Light Snow
7:05 PM 30.2 °F 18.5 °F 28.4 °F 93% 29.90 in 2.0 mi NNE 17.3 mph 24.2 mph 0.00 in Snow Light Snow
7:16 PM 30.2 °F 19.3 °F 28.4 °F 93% 29.90 in 0.8 mi NNE 15.0 mph 20.7 mph 0.00 in Snow Light Snow
7:52 PM 30.0 °F 20.5 °F 28.0 °F 92% 29.94 in 0.8 mi NNE 11.5 mph 19.6 mph 0.00 in Snow Light Snow
7:55 PM 30.2 °F 21.3 °F 28.4 °F 93% 29.91 in 3.0 mi NNE 10.4 mph 23.0 mph 0.00 in   Overcast
8:29 PM 30.2 °F 20.2 °F 28.4 °F 93% 29.92 in 1.8 mi North 12.7 mph - 0.00 in Snow Light Snow
8:44 PM 30.2 °F 19.8 °F 28.4 °F 93% 29.92 in 2.5 mi North 13.8 mph 20.7 mph 0.00 in Snow Light Snow
8:52 PM 30.9 °F 19.4 °F 28.9 °F 92% 29.95 in 4.0 mi North 17.3 mph 23.0 mph 0.00 in   Overcast
9:52 PM 30.0 °F 20.0 °F 27.0 °F 88% 29.97 in 9.0 mi North 12.7 mph 24.2 mph 0.00 in   Overcast
10:24 PM 30.2 °F 20.8 °F 26.6 °F 86% 29.96 in 2.5 mi NNW 11.5 mph - 0.00 in Snow Light Snow
10:32 PM 30.2 °F 20.8 °F 26.6 °F 86% 29.97 in 3.0 mi North 11.5 mph - 0.00 in Snow Light Snow
10:52 PM 30.0 °F 21.1 °F 27.0 °F 88% 29.99 in 10.0 mi NNW 10.4 mph - 0.00 in   Overcast
11:52 PM 28.9 °F 19.2 °F 26.1 °F 89% 29.98 in 10.0 mi North 11.5 mph - N/A   Overcast